GW7187 Weather Reports


Display with metric or nautical units.
time (UTC)temp
F
wind
direction
speed
MPH
gust
MPH
rain 1hr
in
rain 24hr
in
rain mn
in
humidity
%
barometer
mb
20260508131747 78 294 2.0 2.0 0.00 0.00 0.00 41 1016.9
20260508131248 78 294 2.0 2.0 0.00 0.00 0.00 41 1016.9
20260508130249 80 294 3.0 3.0 0.00 0.00 0.00 41 1016.9
20260508125747 80 294 3.0 3.0 0.00 0.00 0.00 41 1016.9
20260508125248 80 294 3.0 3.0 0.00 0.00 0.00 41 1017.3
20260508124747 80 250 3.0 3.0 0.00 0.00 0.00 40 1017.3
20260508124247 80 204 1.0 1.0 0.00 0.00 0.00 41 1016.9
20260508123747 79 266 3.0 3.0 0.00 0.00 0.00 41 1017.3
20260508123247 79 228 3.0 3.0 0.00 0.00 0.00 41 1017.3
20260508122748 78 235 5.0 6.0 0.00 0.00 0.00 42 1017.6
20260508122248 78 238 0.0 0.0 0.00 0.00 0.00 41 1017.3
20260508121749 78 180 6.0 6.0 0.00 0.00 0.00 43 1017.6
20260508121248 79 204 4.0 4.0 0.00 0.00 0.00 40 1017.6
20260508120747 78 282 3.0 3.0 0.00 0.00 0.00 43 1017.6
20260508120248 78 359 1.0 1.0 0.00 0.00 0.00 42 1017.6
20260508115748 79 253 2.0 2.0 0.00 0.00 0.00 42 1017.9
20260508115247 77 241 5.0 5.0 0.00 0.00 0.00 41 1017.9
20260508114747 77 241 5.0 5.0 0.00 0.00 0.00 41 1017.9
20260508114248 78 150 3.0 3.0 0.00 0.00 0.00 42 1017.9
20260508113747 78 216 7.0 7.0 0.00 0.00 0.00 44 1017.9
20260508113249 79 245 5.0 5.0 0.00 0.00 0.00 42 1017.9
20260508112748 78 310 3.0 4.0 0.00 0.00 0.00 42 1017.9
20260508112247 78 241 3.0 4.0 0.00 0.00 0.00 40 1017.9
20260508111748 78 138 3.0 3.0 0.00 0.00 0.00 41 1018.3
20260508111247 77 168 6.0 7.0 0.00 0.00 0.00 42 1018.3
20260508110747 77 252 2.0 2.0 0.00 0.00 0.00 43 1018.3
20260508110247 77 205 5.0 5.0 0.00 0.00 0.00 43 1018.3
20260508105748 77 232 5.0 5.0 0.00 0.00 0.00 42 1018.3
20260508105248 77 156 3.0 3.0 0.00 0.00 0.00 40 1018.3
20260508104747 77 210 9.0 9.0 0.00 0.00 0.00 41 1018.3
20260508104247 77 278 1.0 1.0 0.00 0.00 0.00 43 1018.6
20260508103749 76 250 2.0 2.0 0.00 0.00 0.00 43 1018.6
20260508103247 76 206 5.0 6.0 0.00 0.00 0.00 41 1018.6
20260508102748 77 265 8.0 8.0 0.00 0.00 0.00 41 1018.6
20260508102247 76 166 8.0 8.0 0.00 0.00 0.00 41 1018.6
20260508101748 76 196 4.0 4.0 0.00 0.00 0.00 40 1019.0
20260508101247 76 260 6.0 7.0 0.00 0.00 0.00 43 1019.0
20260508100748 77 156 2.0 2.0 0.00 0.00 0.00 42 1019.0
20260508100247 76 340 0.0 0.0 0.00 0.00 0.00 42 1019.0
20260508095748 76 247 3.0 3.0 0.00 0.00 0.00 43 1019.0
20260508095248 76 198 6.0 7.0 0.00 0.00 0.00 43 1019.0
20260508094747 76 287 5.0 5.0 0.00 0.00 0.00 44 1019.3
20260508094247 77 184 5.0 5.0 0.00 0.00 0.00 44 1019.3
20260508093748 78 216 2.0 2.0 0.00 0.00 0.00 42 1019.0
20260508093247 78 262 0.0 0.0 0.00 0.00 0.00 42 1019.6
20260508092747 76 194 1.0 1.0 0.00 0.00 0.00 45 1019.6
20260508092249 74 150 2.0 2.0 0.00 0.00 0.00 45 1019.6
20260508091748 75 282 1.0 1.0 0.00 0.00 0.00 45 1019.6
20260508091248 76 196 5.0 6.0 0.00 0.00 0.00 44 1019.6
20260508090747 75 144 2.0 2.0 0.00 0.00 0.00 44 1019.6
20260508090247 74 83 1.0 1.0 0.00 0.00 0.00 42 1019.6
20260508085747 75 216 3.0 3.0 0.00 0.00 0.00 41 1019.6
20260508085247 77 96 0.0 0.0 0.00 0.00 0.00 39 1019.6
20260508084748 75 114 2.0 2.0 0.00 0.00 0.00 42 1019.6
20260508084247 75 152 0.0 0.0 0.00 0.00 0.00 44 1020.0
20260508083747 75 66 0.0 0.0 0.00 0.00 0.00 46 1020.0
20260508083248 76 304 0.0 0.0 0.00 0.00 0.00 43 1020.0
20260508082748 75 152 0.0 0.0 0.00 0.00 0.00 46 1020.3
20260508082247 75 0 0.0 0.0 0.00 0.00 0.00 45 1020.3
20260508081749 73 73 0.0 0.0 0.00 0.00 0.00 48 1020.3
20260508081252 72 287 2.0 2.0 0.00 0.00 0.00 51 1020.0
20260508080748 74 288 3.0 3.0 0.00 0.00 0.00 48 1020.0
20260508080247 74 9 2.0 2.0 0.00 0.00 0.00 50 1020.3
20260508075748 73 66 0.0 0.0 0.00 0.00 0.00 48 1020.3
20260508075248 73 104 2.0 2.0 0.00 0.00 0.00 49 1020.3
20260508074747 73 95 0.0 0.0 0.00 0.00 0.00 50 1020.3
20260508074248 73 282 0.0 0.0 0.00 0.00 0.00 50 1020.3
20260508073747 72 49 0.0 0.0 0.00 0.00 0.00 51 1020.3
20260508073249 73 78 0.0 0.0 0.00 0.00 0.00 49 1020.3
20260508072747 72 78 1.0 1.0 0.00 0.00 0.00 51 1020.7
20260508072248 72 7 0.0 0.0 0.00 0.00 0.00 52 1020.3
20260508071748 72 212 2.0 2.0 0.00 0.00 0.00 51 1020.3
20260508071247 71 315 0.0 0.0 0.00 0.00 0.00 53 1020.3
20260508070747 70 50 0.0 0.0 0.00 0.00 0.00 54 1020.3
20260508070248 69 90 0.0 0.0 0.00 0.00 0.00 54 1020.7
20260508065748 68 193 0.0 0.0 0.00 0.00 0.00 58 1020.7
20260508065248 67 282 3.0 3.0 0.00 0.00 0.00 62 1020.7
20260508064747 66 130 3.0 3.0 0.00 0.00 0.00 63 1020.3
20260508064247 66 232 0.0 0.0 0.00 0.00 0.00 62 1020.7
20260508063747 67 199 1.0 1.0 0.00 0.00 0.00 60 1020.7
20260508063248 66 145 2.0 2.0 0.00 0.00 0.00 63 1020.7
20260508062747 67 163 2.0 2.0 0.00 0.00 0.00 60 1020.7
20260508062247 67 270 2.0 2.0 0.00 0.00 0.00 61 1020.3
20260508061748 66 60 0.0 0.0 0.00 0.00 0.00 63 1020.3
20260508061247 66 184 2.0 2.0 0.00 0.00 0.00 64 1020.3
20260508060747 66 180 0.0 0.0 0.00 0.00 0.00 61 1020.7
20260508060247 65 102 0.0 0.0 0.00 0.00 0.00 60 1020.7
20260508055747 64 41 0.0 0.0 0.00 0.00 0.00 62 1020.7
20260508055248 64 209 0.0 0.0 0.00 0.00 0.00 61 1020.7
20260508054748 63 69 0.0 0.0 0.00 0.00 0.00 64 1020.7
20260508054247 64 272 1.0 1.0 0.00 0.00 0.00 64 1020.7
20260508053747 64 85 0.0 0.0 0.00 0.00 0.00 65 1020.3
20260508053248 64 80 0.0 0.0 0.00 0.00 0.00 66 1020.7
20260508052747 64 354 0.0 0.0 0.00 0.00 0.00 65 1020.7
20260508052248 64 96 0.0 0.0 0.00 0.00 0.00 64 1020.3
20260508051748 63 60 1.0 1.0 0.00 0.00 0.00 64 1020.3
20260508051248 63 270 1.0 1.0 0.00 0.00 0.00 64 1020.3
20260508050748 63 79 0.0 0.0 0.00 0.00 0.00 64 1020.3
20260508050247 62 138 0.0 0.0 0.00 0.00 0.00 68 1020.0
20260508045747 62 162 0.0 0.0 0.00 0.00 0.00 69 1020.3
20260508045248 61 78 0.0 0.0 0.00 0.00 0.00 69 1020.3
20260508044748 61 102 0.0 0.0 0.00 0.00 0.00 70 1020.3
20260508044247 60 120 0.0 0.0 0.00 0.00 0.00 70 1020.3
20260508043747 60 124 0.0 0.0 0.00 0.00 0.00 73 1020.3
20260508043247 59 66 2.0 2.0 0.00 0.00 0.00 72 1020.3
20260508042748 59 114 0.0 0.0 0.00 0.00 0.00 74 1020.3
20260508042248 58 114 0.0 0.0 0.00 0.00 0.00 73 1020.3
20260508041747 58 84 0.0 0.0 0.00 0.00 0.00 75 1020.3
20260508041248 57 102 2.0 2.0 0.00 0.00 0.00 75 1020.0
20260508040302 55 60 0.0 0.0 0.00 0.00 0.00 78 1020.0
20260508035747 55 2 0.0 0.0 0.00 0.00 0.00 79 1020.3
20260508035248 54 354 0.0 0.0 0.00 0.00 0.00 79 1020.0
20260508034749 54 66 0.0 0.0 0.00 0.00 0.00 81 1020.0
20260508034247 54 60 2.0 2.0 0.00 0.00 0.00 80 1020.0
20260508033747 55 48 0.0 0.0 0.00 0.00 0.00 79 1020.0
20260508033249 55 132 0.0 0.0 0.00 0.00 0.00 78 1019.6
20260508032747 54 355 0.0 0.0 0.00 0.00 0.00 78 1019.6
20260508032248 53 90 0.0 0.0 0.00 0.00 0.00 81 1019.6
20260508031749 53 113 0.0 0.0 0.00 0.00 0.00 81 1020.0
20260508031248 52 66 0.0 0.0 0.00 0.00 0.00 83 1019.6
20260508030748 51 193 0.0 0.0 0.00 0.00 0.00 84 1019.6
20260508030247 51 240 0.0 0.0 0.00 0.00 0.00 85 1019.6
20260508025748 52 183 0.0 0.0 0.00 0.00 0.00 86 1019.6
20260508025247 52 192 2.0 2.0 0.00 0.00 0.00 85 1019.6
20260508024747 52 288 0.0 0.0 0.00 0.00 0.00 85 1019.6
20260508024248 52 194 0.0 0.0 0.00 0.00 0.00 84 1019.6
20260508023749 52 202 2.0 2.0 0.00 0.00 0.00 84 1019.6
20260508023247 52 210 0.0 0.0 0.00 0.00 0.00 84 1019.6
20260508022748 52 193 0.0 0.0 0.00 0.00 0.00 83 1019.6
20260508022247 52 125 0.0 0.0 0.00 0.00 0.00 83 1019.3
20260508021748 52 222 2.0 2.0 0.00 0.00 0.00 84 1019.6
20260508021247 52 222 2.0 2.0 0.00 0.00 0.00 84 1019.0
20260508020747 52 144 1.0 1.0 0.00 0.00 0.00 83 1019.3
20260508020248 52 186 1.0 1.0 0.00 0.00 0.00 83 1019.3
20260508015747 52 277 0.0 0.0 0.00 0.00 0.00 83 1019.3
20260508015247 52 186 0.0 0.0 0.00 0.00 0.00 84 1019.3
20260508014748 53 192 0.0 0.0 0.00 0.00 0.00 83 1019.0
20260508014248 53 162 0.0 0.0 0.00 0.00 0.00 84 1019.3
20260508013747 53 180 0.0 0.0 0.00 0.00 0.00 83 1019.3
20260508013247 53 142 0.0 0.0 0.00 0.00 0.00 83 1019.3
20260508012747 53 240 1.0 1.0 0.00 0.00 0.00 82 1019.3
20260508012247 53 174 0.0 0.0 0.00 0.00 0.00 83 1019.3
20260508011748 53 84 0.0 0.0 0.00 0.00 0.00 82 1019.0
20260508011247 53 90 0.0 0.0 0.00 0.00 0.00 82 1019.3
20260508010748 53 96 0.0 0.0 0.00 0.00 0.00 81 1019.3
20260508010247 53 48 0.0 0.0 0.00 0.00 0.00 81 1019.0
20260508005747 54 108 0.0 0.0 0.00 0.00 0.00 81 1019.0
20260508005248 54 54 0.0 0.0 0.00 0.00 0.00 81 1019.0
20260508004748 54 222 0.0 0.0 0.00 0.00 0.00 81 1019.3
20260508004250 54 288 0.0 0.0 0.00 0.00 0.00 80 1019.0
20260508003748 54 102 0.0 0.0 0.00 0.00 0.00 79 1019.3
20260508003248 55 72 0.0 0.0 0.00 0.00 0.00 78 1019.3
20260508002748 55 288 0.0 0.0 0.00 0.00 0.00 78 1019.3
20260508002248 54 264 0.0 0.0 0.00 0.00 0.00 79 1019.3
20260508001748 54 30 0.0 0.0 0.00 0.00 0.00 81 1019.3
20260508001247 54 6 1.0 1.0 0.00 0.00 0.00 81 1019.3
20260508000747 54 54 0.0 0.0 0.00 0.00 0.00 81 1019.3
20260508000250 53 66 0.0 0.0 0.00 0.00 0.00 82 1019.3
20260507235748 54 60 0.0 0.0 0.00 0.00 0.00 82 1019.3
20260507235247 54 66 2.0 2.0 0.00 0.00 0.00 82 1019.3
20260507234747 54 54 0.0 0.0 0.00 0.00 0.00 81 1019.3
20260507234248 54 6 0.0 0.0 0.00 0.00 0.00 81 1019.3
20260507233747 54 156 0.0 0.0 0.00 0.00 0.00 81 1019.3
20260507233248 54 102 0.0 0.0 0.00 0.00 0.00 81 1019.3
20260507232747 54 42 0.0 0.0 0.00 0.00 0.00 82 1019.3
20260507232247 54 272 0.0 0.0 0.00 0.00 0.00 83 1019.3
20260507231747 54 78 0.0 0.0 0.00 0.00 0.00 83 1019.3
20260507231247 54 60 1.0 1.0 0.00 0.00 0.00 83 1019.3
20260507230747 54 72 0.0 0.0 0.00 0.00 0.00 83 1019.3
20260507230247 55 96 0.0 0.0 0.00 0.00 0.00 83 1019.3
20260507225748 55 108 0.0 0.0 0.00 0.00 0.00 83 1019.3
20260507225248 55 330 0.0 0.0 0.00 0.00 0.00 83 1019.3
20260507224748 55 6 0.0 0.0 0.00 0.00 0.00 83 1019.3
20260507224248 55 91 0.0 0.0 0.00 0.00 0.00 83 1019.3
20260507223747 55 120 0.0 0.0 0.00 0.00 0.00 83 1019.3
20260507223247 56 42 0.0 0.0 0.00 0.00 0.00 83 1019.3
20260507222748 56 66 0.0 0.0 0.00 0.00 0.00 83 1019.3
20260507222247 56 6 0.0 0.0 0.00 0.00 0.00 84 1019.6
20260507221748 56 210 1.0 1.0 0.00 0.00 0.00 83 1019.3
20260507221249 56 213 0.0 0.0 0.00 0.00 0.00 83 1019.6
20260507220747 56 177 0.0 0.0 0.00 0.00 0.00 82 1019.6
20260507220247 56 248 1.0 1.0 0.00 0.00 0.00 82 1019.6
20260507215747 56 180 1.0 1.0 0.00 0.00 0.00 82 1019.6
20260507215248 57 192 0.0 0.0 0.00 0.00 0.00 81 1019.6
20260507214748 56 214 0.0 0.0 0.00 0.00 0.00 82 1019.6
20260507214248 57 225 3.0 3.0 0.00 0.00 0.00 80 1019.6
20260507213747 57 204 0.0 0.0 0.00 0.00 0.00 80 1019.3
20260507213248 57 114 0.0 0.0 0.00 0.00 0.00 80 1019.3
20260507212748 58 0 0.0 0.0 0.00 0.00 0.00 80 1019.6
20260507212247 58 182 0.0 0.0 0.00 0.00 0.00 79 1019.3
20260507211747 58 186 0.0 0.0 0.00 0.00 0.00 79 1019.3
20260507211247 58 102 0.0 0.0 0.00 0.00 0.00 79 1019.3
20260507210748 58 174 0.0 0.0 0.00 0.00 0.00 78 1019.3
20260507210248 58 168 0.0 0.0 0.00 0.00 0.00 78 1019.3
20260507205747 58 240 0.0 0.0 0.00 0.00 0.00 77 1019.0
20260507205247 58 183 0.0 0.0 0.00 0.00 0.00 78 1019.0
20260507204747 59 72 1.0 1.0 0.00 0.00 0.00 77 1019.0
20260507204247 59 30 0.0 0.0 0.00 0.00 0.00 76 1019.0
20260507203747 59 60 0.0 0.0 0.00 0.00 0.00 76 1019.0
20260507203247 59 30 2.0 2.0 0.00 0.00 0.00 76 1019.0
20260507202748 59 102 0.0 0.0 0.00 0.00 0.00 77 1019.0
20260507202247 60 177 0.0 0.0 0.00 0.00 0.00 76 1018.6
20260507201748 59 306 0.0 0.0 0.00 0.00 0.00 76 1018.6
20260507201247 60 54 0.0 0.0 0.00 0.00 0.00 76 1018.6
20260507200748 60 48 0.0 0.0 0.00 0.00 0.00 76 1019.0
20260507200247 60 91 0.0 0.0 0.00 0.00 0.00 77 1019.0
20260507195748 60 66 1.0 1.0 0.00 0.00 0.00 76 1019.0
20260507195247 60 48 2.0 2.0 0.00 0.00 0.00 76 1019.0
20260507194747 60 36 1.0 1.0 0.00 0.00 0.00 76 1019.0
20260507194247 60 60 0.0 0.0 0.00 0.00 0.00 77 1019.0
20260507193747 60 66 0.0 0.0 0.00 0.00 0.00 77 1019.0
20260507193247 60 354 0.0 0.0 0.00 0.00 0.00 76 1019.0
20260507192747 61 96 2.0 2.0 0.00 0.00 0.00 75 1019.0
20260507192249 61 348 0.0 0.0 0.00 0.00 0.00 75 1019.0
20260507191748 62 96 0.0 0.0 0.00 0.00 0.00 74 1019.0
20260507191247 62 72 0.0 0.0 0.00 0.00 0.00 73 1019.0
20260507190747 62 66 0.0 0.0 0.00 0.00 0.00 71 1019.0
20260507190249 63 106 0.0 0.0 0.00 0.00 0.00 70 1019.0
20260507185748 63 318 1.0 1.0 0.00 0.00 0.00 69 1019.0
20260507185247 64 288 2.0 2.0 0.00 0.00 0.00 68 1019.0
20260507184747 63 1 1.0 1.0 0.00 0.00 0.00 70 1019.0
20260507184247 63 240 0.0 0.0 0.00 0.00 0.00 70 1019.0
20260507183747 63 126 0.0 0.0 0.00 0.00 0.00 70 1019.0
20260507183248 63 91 0.0 0.0 0.00 0.00 0.00 70 1019.0
20260507182748 63 126 0.0 0.0 0.00 0.00 0.00 70 1018.6
20260507182247 63 96 0.0 0.0 0.00 0.00 0.00 69 1018.6
20260507181748 64 150 1.0 1.0 0.00 0.00 0.00 68 1019.0
20260507181248 64 90 0.0 0.0 0.00 0.00 0.00 68 1018.6
20260507180747 64 90 0.0 0.0 0.00 0.00 0.00 69 1018.6
20260507180247 64 168 3.0 3.0 0.00 0.00 0.00 69 1018.6
20260507175748 64 172 0.0 0.0 0.00 0.00 0.00 69 1018.3
20260507175248 64 54 0.0 0.0 0.00 0.00 0.00 67 1018.3
20260507174747 65 132 0.0 0.0 0.00 0.00 0.00 67 1018.3
20260507174248 65 54 0.0 0.0 0.00 0.00 0.00 68 1017.9
20260507173747 65 158 0.0 0.0 0.00 0.00 0.00 68 1018.3
20260507173248 65 270 0.0 0.0 0.00 0.00 0.00 67 1018.3
20260507172747 65 108 0.0 0.0 0.00 0.00 0.00 67 1017.9
20260507172248 65 136 0.0 0.0 0.00 0.00 0.00 66 1017.9
20260507171748 66 97 0.0 0.0 0.00 0.00 0.00 65 1018.3
20260507171249 67 60 0.0 0.0 0.00 0.00 0.00 63 1017.9
20260507170748 67 102 0.0 0.0 0.00 0.00 0.00 62 1017.9
20260507170247 69 6 0.0 0.0 0.00 0.00 0.00 56 1017.9
20260507165748 69 0 1.0 1.0 0.00 0.00 0.00 53 1017.9
20260507165248 70 348 2.0 2.0 0.00 0.00 0.00 51 1017.9
20260507164749 69 312 4.0 4.0 0.00 0.00 0.00 52 1017.9
20260507164248 70 330 2.0 2.0 0.00 0.00 0.00 51 1017.6
20260507163747 70 328 4.0 5.0 0.00 0.00 0.00 49 1017.9
20260507163249 71 294 2.0 2.0 0.00 0.00 0.00 47 1017.6
20260507162747 71 330 5.0 5.0 0.00 0.00 0.00 47 1017.6
20260507162248 71 342 3.0 3.0 0.00 0.00 0.00 47 1017.9
20260507161747 70 344 2.0 2.0 0.00 0.00 0.00 48 1017.9
20260507161247 71 348 3.0 3.0 0.00 0.00 0.00 48 1017.6
20260507160748 71 316 3.0 3.0 0.00 0.00 0.00 47 1017.6
20260507160248 72 348 2.0 2.0 0.00 0.00 0.00 46 1017.6
20260507155747 72 310 3.0 3.0 0.00 0.00 0.00 45 1017.6
20260507155247 73 287 0.0 0.0 0.00 0.00 0.00 41 1017.6
20260507154747 74 341 3.0 3.0 0.00 0.00 0.00 38 1017.6
20260507154247 75 354 2.0 2.0 0.00 0.00 0.00 37 1017.6
20260507153748 75 347 3.0 3.0 0.00 0.00 0.00 36 1017.6
20260507153248 76 353 0.0 0.0 0.00 0.00 0.00 35 1017.6
20260507152747 76 343 3.0 3.0 0.00 0.00 0.00 35 1017.6
20260507152247 76 345 4.0 4.0 0.00 0.00 0.00 29 1017.6
20260507151748 77 354 0.0 0.0 0.00 0.00 0.00 30 1017.6
20260507151247 76 270 2.0 2.0 0.00 0.00 0.00 29 1017.3
20260507150748 77 306 2.0 2.0 0.00 0.00 0.00 28 1017.6
20260507150248 78 30 0.0 0.0 0.00 0.00 0.00 29 1017.6
20260507145748 78 350 0.0 0.0 0.00 0.00 0.00 29 1017.3
20260507145248 78 270 0.0 0.0 0.00 0.00 0.00 31 1017.3
20260507144747 78 48 0.0 0.0 0.00 0.00 0.00 30 1017.3
20260507144248 77 338 0.0 0.0 0.00 0.00 0.00 29 1017.6
20260507143748 78 64 0.0 0.0 0.00 0.00 0.00 30 1017.6
20260507143248 78 227 0.0 0.0 0.00 0.00 0.00 31 1017.6
20260507142748 78 216 0.0 0.0 0.00 0.00 0.00 28 1017.6
20260507142248 77 299 0.0 0.0 0.00 0.00 0.00 32 1017.3
20260507141748 80 287 0.0 0.0 0.00 0.00 0.00 30 1017.6
20260507141256 78 274 0.0 0.0 0.00 0.00 0.00 31 1017.3
20260507140748 79 126 0.0 0.0 0.00 0.00 0.00 33 1017.3
20260507140247 78 186 0.0 0.0 0.00 0.00 0.00 35 1017.3
20260507135748 77 30 0.0 0.0 0.00 0.00 0.00 35 1017.6
20260507135248 77 60 3.0 3.0 0.00 0.00 0.00 36 1017.6
20260507134748 77 72 3.0 3.0 0.00 0.00 0.00 35 1017.3
20260507134248 78 90 0.0 0.0 0.00 0.00 0.00 34 1017.3
20260507133748 77 306 0.0 0.0 0.00 0.00 0.00 37 1017.6
20260507133248 76 282 2.0 2.0 0.00 0.00 0.00 36 1017.6
20260507132748 75 44 0.0 0.0 0.00 0.00 0.00 35 1017.6
20260507132249 76 217 2.0 2.0 0.00 0.00 0.00 36 1017.6